Last updated on Nov. 28, 2016, 12:15 a.m. UTC
1 41818U 16062A 16332.67919632 .00016180 00000-0 71021-3 0 9995 2 41818 51.6421 323.2647 0006126 288.7059 71.3314 15.22062140 6338
Satellite is not in orbit.